FW2527 Weather Reports


time (UTC)temp
C
wind
direction
speed
KPH
gust
KPH
rain 1hr
cm
rain 24hr
cm
rain mn
cm
humidity
%
barometer
mb
20260506092049 8 0.0 0.0 0.03 0.51 0.51 93 1007.2
20260506091510 8 0.0 0.0 0.03 0.51 0.51 93 1007.2
20260506091101 8 0.0 0.0 0.03 0.51 0.51 93 1007.1
20260506090550 8 0.0 0.0 0.03 0.51 0.51 93 1007.0
20260506090019 8 0.0 0.0 0.03 0.51 0.51 94 1007.1
20260506085507 8 0.0 0.0 0.05 0.51 0.51 94 1007.2
20260506085057 8 0.0 0.0 0.05 0.51 0.51 93 1007.1
20260506084517 8 0.0 0.0 0.05 0.51 0.51 94 1007.1
20260506084005 8 0.0 0.0 0.03 0.51 0.51 94 1007.2
20260506083555 8 0.0 0.0 0.03 0.51 0.51 94 1007.1
20260506083014 8 0.0 0.0 0.03 0.51 0.51 94 1007.0
20260506082506 8 0.0 0.0 0.03 0.51 0.51 94 1007.1
20260506082052 8 0.0 0.0 0.03 0.51 0.51 94 1007.2
20260506081511 8 0.0 0.0 0.03 0.51 0.51 94 1007.2
20260506081001 8 0.0 0.0 0.03 0.51 0.51 94 1007.1
20260506080551 8 0.0 0.0 0.03 0.51 0.51 94 1007.1
20260506073013 8 0.0 0.0 0.00 0.94 0.48 94 1007.0
20260506072501 8 0.0 0.0 0.00 0.94 0.48 93 1006.9
20260506072054 8 0.0 0.0 0.00 0.94 0.48 94 1007.0
20260506071510 8 0.0 0.0 0.03 0.94 0.48 94 1006.9
20260506071101 8 0.0 0.0 0.03 0.94 0.48 94 1006.8
20260506070549 8 0.0 0.0 0.03 0.94 0.48 94 1006.8
20260506062041 8 0.0 0.0 0.05 0.97 0.48 94 1006.8
20260506061501 8 0.0 0.0 0.03 0.94 0.46 94 1006.8
20260506061051 8 0.0 0.0 0.03 0.94 0.46 94 1006.8
20260506060539 8 0.0 0.0 0.03 0.94 0.46 94 1006.7
20260506051051 8 0.0 0.0 0.03 0.91 0.43 94 1006.5
20260506050539 8 0.0 0.0 0.03 0.91 0.43 93 1006.5
20260506050104 8 0.0 0.0 0.03 0.91 0.43 94 1006.5
20260506045040 8 0.0 0.0 0.05 0.94 0.43 93 1006.5
20260506044506 8 0.0 0.0 0.05 0.94 0.43 93 1006.6
20260506044056 8 0.0 0.0 0.05 0.94 0.43 93 1006.6
20260506043544 8 0.0 0.0 0.15 0.94 0.43 93 1006.5
20260506043005 8 0.0 0.0 0.18 0.94 0.43 93 1006.6
20260506042555 8 0.0 0.0 0.18 0.94 0.43 93 1006.6
20260506042044 8 0.0 0.0 0.15 0.91 0.43 93 1006.5
20260506041607 8 0.0 0.0 0.18 0.91 0.43 93 1006.5
20260506041043 8 0.0 0.0 0.18 0.91 0.43 93 1006.6
20260506040534 8 0.0 0.0 0.20 0.91 0.43 93 1006.6
20260506040058 8 0.0 0.0 0.20 0.91 0.43 93 1006.6
20260506035541 8 0.0 0.0 0.20 0.91 0.43 93 1006.8
20260506035029 8 0.0 0.0 0.20 0.89 0.41 93 1006.8
20260506034552 8 0.0 0.0 0.20 0.89 0.41 93 1006.7
20260506034039 8 0.0 0.0 0.23 0.89 0.41 93 1006.7
20260506033528 8 0.0 0.0 0.10 0.79 0.28 93 1006.8
20260506033052 8 0.0 0.0 0.08 0.76 0.25 93 1006.9
20260506032537 8 0.0 0.0 0.10 0.76 0.25 93 1006.8
20260506032025 8 0.0 0.0 0.10 0.76 0.25 93 1007.0
20260506031548 8 0.0 0.0 0.10 0.71 0.23 93 1007.0
20260506031037 8 0.0 0.0 0.10 0.71 0.23 93 1007.0
20260506030526 8 0.0 0.0 0.08 0.71 0.23 93 1007.0
20260506030044 8 0.0 0.0 0.10 0.71 0.23 93 1007.1
20260506025534 8 0.0 0.0 0.10 0.79 0.23 93 1007.0
20260506025020 8 0.0 0.0 0.08 0.76 0.20 93 1006.9
20260506024542 8 0.0 0.0 0.10 0.76 0.20 93 1006.9
20260506024030 8 0.0 0.0 0.08 0.71 0.18 93 1007.0
20260506023518 8 0.0 0.0 0.10 0.71 0.18 93 1007.0
20260506023051 8 0.0 0.0 0.08 0.71 0.15 93 1007.1
20260506022528 8 0.0 0.0 0.08 0.71 0.15 93 1007.0
20260506022017 8 0.0 0.0 0.10 0.71 0.15 93 1007.1
20260506021539 8 0.0 0.0 0.08 0.71 0.15 93 1007.1
20260506021027 8 0.0 0.0 0.08 0.71 0.15 93 1007.2
20260506020514 8 0.0 0.0 0.08 0.71 0.15 93 1007.1
20260506020106 8 0.0 0.0 0.08 0.71 0.13 93 1007.3
20260506015524 8 0.0 0.0 0.08 0.71 0.13 93 1007.4
20260506015016 8 0.0 0.0 0.08 0.71 0.13 92 1007.3
20260506014533 8 0.0 0.0 0.05 0.69 0.10 92 1007.4
20260506014020 8 0.0 0.0 0.05 0.69 0.10 92 1007.3
20260506013511 8 0.0 0.0 0.05 0.66 0.08 92 1007.4
20260506013031 8 0.0 0.0 0.05 0.66 0.08 92 1007.5
20260506012520 8 0.0 0.0 0.05 0.66 0.08 92 1007.4
20260506012007 8 0.0 0.0 0.05 0.64 0.05 92 1007.4
20260506011530 8 0.0 0.0 0.05 0.64 0.05 92 1007.5
20260506011016 8 0.0 0.0 0.05 0.64 0.05 92 1007.5
20260506010505 8 0.0 0.0 0.05 0.64 0.05 92 1007.6
20260506010035 8 0.0 0.0 0.03 0.81 0.05 92 1007.6
20260506005523 8 0.0 0.0 0.03 0.81 0.05 92 1007.6
20260506005012 8 0.0 0.0 0.03 0.81 0.05 92 1007.6
20260506004540 8 0.0 0.0 0.03 0.81 0.05 91 1007.7
20260506004023 8 0.0 0.0 0.05 0.81 0.05 91 1007.7
20260506003508 8 0.0 0.0 0.05 0.81 0.05 91 1007.7
20260506003039 8 0.0 0.0 0.05 0.81 0.05 91 1007.7
20260506002527 8 0.0 0.0 0.05 0.81 0.05 91 1007.6
20260506002015 8 0.0 0.0 0.03 0.79 0.03 91 1007.7
20260506001545 8 0.0 0.0 0.03 0.79 0.03 91 1007.8
20260506001025 8 0.0 0.0 0.03 0.79 0.03 90 1007.8
20260506000513 8 0.0 0.0 0.03 0.79 0.03 90 1007.9
20260506000052 8 0.0 0.0 0.03 0.99 0.03 90 1007.9
20260505235522 8 0.0 0.0 0.03 0.99 0.03 90 1008.0
20260505235011 8 0.0 0.0 0.03 0.99 0.03 90 1008.0
20260505234536 8 0.0 0.0 0.03 0.99 0.03 89 1008.1
20260505234022 8 0.0 0.0 0.00 0.97 0.00 89 1008.1
20260505233507 8 0.0 0.0 0.00 0.97 0.00 89 1008.1
20260505233028 8 0.0 0.0 0.00 0.97 0.00 89 1008.2
20260505232516 8 0.0 0.0 0.00 0.97 0.00 89 1008.2
20260505232004 8 0.0 0.0 0.00 0.97 0.00 89 1008.2
20260505231529 9 0.0 0.0 0.00 0.97 0.00 89 1008.3
20260505231013 9 0.0 0.0 0.00 0.97 0.00 88 1008.4
20260505230502 9 0.0 0.0 0.00 0.97 0.00 88 1008.3
20260505230038 9 0.0 0.0 0.00 1.60 0.00 88 1008.3
20260505225511 9 0.0 0.0 0.00 1.60 0.00 88 1008.3
20260505225102 9 0.0 0.0 0.00 1.60 0.00 88 1008.3
20260505224532 9 0.0 0.0 0.00 1.60 0.00 88 1008.3
20260505224018 9 0.0 0.0 0.00 1.60 0.00 88 1008.4
20260505223506 9 0.0 0.0 0.00 1.60 0.00 88 1008.5
20260505223034 9 0.0 0.0 0.00 1.60 0.00 88 1008.5
20260505222518 9 0.0 0.0 0.00 1.60 0.00 88 1008.4
20260505222005 9 0.0 0.0 0.00 1.60 0.00 88 1008.5
20260505221541 9 0.0 0.0 0.00 1.60 0.00 87 1008.5
20260505221022 9 0.0 0.0 0.00 1.60 0.00 88 1008.5
20260505220510 10 0.0 0.0 0.00 1.60 0.00 88 1008.5
20260505220031 10 0.0 0.0 0.00 1.68 1.60 88 1008.6
20260505215519 10 0.0 0.0 0.00 1.68 1.60 87 1008.5
20260505215007 10 0.0 0.0 0.00 1.68 1.60 87 1008.7
20260505214528 10 0.0 0.0 0.00 1.68 1.60 87 1008.6
20260505214017 10 0.0 0.0 0.00 1.68 1.60 87 1008.6
20260505213504 10 0.0 0.0 0.00 1.68 1.60 87 1008.6
20260505213028 10 0.0 0.0 0.00 1.68 1.60 87 1008.7
20260505212513 10 0.0 0.0 0.00 1.68 1.60 87 1008.8
20260505212002 10 0.0 0.0 0.00 1.68 1.60 87 1008.8
20260505211530 10 0.0 0.0 0.00 1.68 1.60 87 1008.7
20260505211011 10 0.0 0.0 0.00 1.68 1.60 87 1008.8
20260505210601 10 0.0 0.0 0.00 1.68 1.60 87 1008.8
20260505210021 10 0.0 0.0 0.00 1.70 1.60 87 1008.8
20260505205513 10 0.0 0.0 0.00 1.70 1.60 87 1008.8
20260505205100 10 0.0 0.0 0.00 1.70 1.60 87 1008.9
20260505204518 10 0.0 0.0 0.00 1.70 1.60 87 1008.9
20260505204006 10 0.0 0.0 0.00 1.70 1.60 87 1008.8
20260505203557 10 0.0 0.0 0.00 1.70 1.60 87 1008.8
20260505203021 10 0.0 0.0 0.00 1.70 1.60 87 1008.8
20260505202509 10 0.0 0.0 0.00 1.70 1.60 87 1008.8
20260505202100 10 0.0 0.0 0.00 1.70 1.60 87 1008.8
20260505201518 10 0.0 0.0 0.00 1.70 1.60 87 1008.9
20260505201007 10 0.0 0.0 0.00 1.70 1.60 87 1008.8
20260505200557 10 0.0 0.0 0.00 1.70 1.60 87 1008.8
20260505200016 10 0.0 0.0 0.00 1.70 1.60 87 1008.9
20260505195504 10 0.0 0.0 0.00 1.70 1.60 87 1008.8
20260505195055 10 0.0 0.0 0.00 1.70 1.60 88 1008.9
20260505194513 10 0.0 0.0 0.00 1.70 1.60 88 1008.8
20260505194002 10 0.0 0.0 0.00 1.70 1.60 88 1008.9
20260505193552 10 0.0 0.0 0.00 1.70 1.60 88 1008.8
20260505193011 10 0.0 0.0 0.00 1.70 1.60 88 1008.8
20260505192602 10 0.0 0.0 0.00 1.70 1.60 88 1008.8
20260505192049 10 0.0 0.0 0.00 1.70 1.60 88 1008.7
20260505191509 10 0.0 0.0 0.00 1.70 1.60 88 1008.7
20260505191058 10 0.0 0.0 0.00 1.70 1.60 88 1008.7
20260505190546 10 0.0 0.0 0.00 1.70 1.60 88 1008.8
20260505190003 10 0.0 0.0 0.00 1.70 1.60 88 1008.8
20260505185550 10 0.0 0.0 0.00 1.70 1.60 88 1008.8
20260505185038 10 0.0 0.0 0.00 1.70 1.60 88 1008.7
20260505184507 10 0.0 0.0 0.00 1.70 1.60 88 1008.6
20260505184058 10 0.0 0.0 0.00 1.70 1.60 88 1008.8
20260505183546 10 0.0 0.0 0.00 1.70 1.60 88 1008.7
20260505183006 10 0.0 0.0 0.00 1.70 1.60 88 1008.5
20260505182555 10 0.0 0.0 0.00 1.70 1.60 88 1008.5
20260505182043 10 0.0 0.0 0.00 1.70 1.60 88 1008.4
20260505181502 10 0.0 0.0 0.00 1.70 1.60 88 1008.7
20260505181055 10 0.0 0.0 0.00 1.70 1.60 88 1008.8
20260505180540 10 0.0 0.0 0.00 1.70 1.60 88 1008.8
20260505180009 11 0.0 0.0 0.00 1.75 1.60 88 1008.8
20260505175559 11 0.0 0.0 0.00 1.75 1.60 88 1008.8
20260505175047 11 0.0 0.0 0.00 1.75 1.60 88 1008.8
20260505174506 11 0.0 0.0 0.00 1.75 1.60 88 1008.8
20260505174057 11 0.0 0.0 0.00 1.75 1.60 88 1008.7
20260505173544 11 0.0 0.0 0.00 1.75 1.60 88 1008.8
20260505173014 11 0.0 0.0 0.00 1.75 1.60 88 1008.7
20260505172501 11 0.0 0.0 0.00 1.75 1.60 88 1008.7
20260505172051 11 0.0 0.0 0.00 1.75 1.60 88 1008.9
20260505171516 11 0.0 0.0 0.00 1.75 1.60 88 1009.0
20260505171100 11 0.0 0.0 0.00 1.75 1.60 88 1009.0
20260505170549 11 0.0 0.0 0.00 1.75 1.60 88 1009.1
20260505170007 11 0.0 0.0 0.00 1.78 1.60 88 1009.1
20260505165557 11 0.0 0.0 0.00 1.78 1.60 88 1009.1
20260505165047 11 0.0 0.0 0.00 1.78 1.60 88 1009.0
20260505164505 11 0.0 0.0 0.00 1.78 1.60 88 1009.1
20260505164056 11 0.0 0.0 0.00 1.78 1.60 88 1009.1
20260505163546 11 0.0 0.0 0.00 1.78 1.60 88 1009.2
20260505163013 11 0.0 0.0 0.00 1.78 1.60 88 1009.2
20260505162601 11 0.0 0.0 0.00 1.78 1.60 88 1009.2
20260505162049 11 0.0 0.0 0.00 1.78 1.60 88 1009.2
20260505161508 11 0.0 0.0 0.00 1.78 1.60 88 1009.2
20260505161059 11 0.0 0.0 0.00 1.78 1.60 87 1009.2
20260505160546 11 0.0 0.0 0.00 1.78 1.60 87 1009.3
20260505153001 11 0.0 0.0 0.00 1.78 1.60 87 1009.3
20260505152550 11 0.0 0.0 0.00 1.78 1.60 88 1009.2
20260505152038 11 0.0 0.0 0.00 1.78 1.60 88 1009.4
20260505151507 11 0.0 0.0 0.00 1.78 1.60 88 1009.3
20260505151101 11 0.0 0.0 0.00 1.78 1.60 88 1009.3
20260505150546 11 0.0 0.0 0.00 1.78 1.60 88 1009.4
20260505140546 11 0.0 0.0 0.00 1.83 1.60 88 1009.7
20260505124514 10 0.0 0.0 0.00 1.83 1.60 91 1010.3
20260505124002 10 0.0 0.0 0.00 1.83 1.60 91 1010.4
20260505123549 10 0.0 0.0 0.00 1.83 1.60 91 1010.5
20260505123111 10 0.0 0.0 0.00 1.83 1.60 92 1010.4
20260505122550 10 0.0 0.0 0.00 1.83 1.60 92 1010.4
20260505122038 10 0.0 0.0 0.00 1.83 1.60 92 1010.5
20260505121601 10 0.0 0.0 0.00 1.83 1.60 92 1010.5
20260505121050 10 0.0 0.0 0.00 1.83 1.60 92 1010.5
20260505120539 10 0.0 0.0 0.00 1.83 1.60 93 1010.6
20260505120121 10 0.0 0.0 0.00 1.83 1.60 93 1010.6
20260505115546 10 0.0 0.0 0.00 1.83 1.60 93 1010.8
20260505115034 10 0.0 0.0 0.00 1.83 1.60 93 1010.7
20260505114557 10 0.0 0.0 0.00 1.83 1.60 93 1010.8
20260505114044 10 0.0 0.0 0.00 1.83 1.60 93 1011.0
20260505113531 10 0.0 0.0 0.00 1.83 1.60 93 1010.8
20260505113055 10 0.0 0.0 0.00 1.83 1.60 93 1010.8
20260505112542 10 0.0 0.0 0.00 1.83 1.60 93 1010.8
20260505112031 10 0.0 0.0 0.00 1.83 1.60 94 1010.9
20260505111552 10 0.0 0.0 0.00 1.83 1.60 94 1010.8
20260505111040 10 0.0 0.0 0.00 1.83 1.60 93 1010.8
20260505110528 9 0.0 0.0 0.00 1.83 1.60 94 1010.9
20260505110108 9 0.0 0.0 0.00 1.83 1.60 94 1010.9
20260505102029 9 0.0 0.0 0.00 1.83 1.60 94 1011.2
20260505101548 8 0.0 0.0 0.00 1.83 1.60 94 1011.2
20260505101036 8 0.0 0.0 0.00 1.83 1.60 94 1011.3
20260505100524 8 0.0 0.0 0.00 1.83 1.60 94 1011.4
20260505100046 8 0.0 0.0 0.00 1.83 1.60 94 1011.4
20260505095533 8 0.0 0.0 0.00 1.83 1.60 94 1011.5
20260505095021 8 0.0 0.0 0.00 1.83 1.60 94 1011.5
20260505094544 8 0.0 0.0 0.00 1.83 1.60 94 1011.4
20260505094032 8 0.0 0.0 0.00 1.83 1.60 94 1011.5
20260505093520 8 0.0 0.0 0.00 1.83 1.60 94 1011.4
20260505093042 8 0.0 0.0 0.00 1.83 1.60 94 1011.4
20260505092530 8 0.0 0.0 0.00 1.83 1.60 94 1011.4